• Processing (Info)

  • MPEC 2023-V103 : 2023 VB3

    The following Minor Planet Electronic Circular may be linked-to from your own Web pages, but must not otherwise be redistributed electronically.

    A form allowing access to any MPEC is at the bottom of this page.


    Read MPEC 2023-V102 Read MPEC 2023-V104


    M.P.E.C. 2023-V103                             Issued 2023 November 8, 01:26 UT
    
         The Minor Planet Electronic Circulars contain information on unusual
             minor planets, routine data on comets and natural satellites,
             and occasional editorial announcements.  They are published
        on behalf of Division F of the International Astronomical Union by the
              Minor Planet Center, Smithsonian Astrophysical Observatory,
                              Cambridge, MA 02138, U.S.A.
    			  
                 Prepared using the Tamkin Foundation Computer Network
    
                                  MPC@CFA.HARVARD.EDU
                URL https://www.minorplanetcenter.net/    ISSN 1523-6714
    
                                    2023 VB3                                 
    
    
    Observations:
         K23V03B*1C2023 11 06.42422804 30 01.127+04 18 02.84         20.13GVEV103G96
         K23V03B 1C2023 11 06.42942904 29 58.700+04 19 20.50         21.03GVEV103G96
         K23V03B 1C2023 11 06.43464104 29 56.317+04 20 37.97         20.34GVEV103G96
         K23V03B 1C2023 11 06.43983304 29 53.894+04 21 55.87         19.94GVEV103G96
         K23V03B KC2023 11 06.49227904 29 29.983+04 34 50.27         20.92GVEV103I52
         K23V03B KC2023 11 06.49319504 29 29.548+04 35 04.49         19.94GVEV103I52
         K23V03B KC2023 11 06.49410704 29 29.137+04 35 17.12         20.16GVEV103I52
         K23V03B KC2023 11 06.49501904 29 28.727+04 35 30.44         20.20GVEV103I52
         K23V03B KC2023 11 06.55352604 29 11.56 +04 52 37.2          20.3 GVEV103474
         K23V03B KC2023 11 06.55602904 29 10.45 +04 53 13.3          20.3 GVEV103474
         K23V03B KC2023 11 06.55853104 29 09.30 +04 53 49.7          20.4 GVEV103474
         K23V03B KC2023 11 06.56103304 29 08.16 +04 54 26.6          20.2 GVEV103474
         K23V03B |C2023 11 07.22003 04 24 53.54 +07 23 46.4          20.2 VuEV103807
         K23V03B |C2023 11 07.22655 04 24 50.86 +07 25 09.8          20.0 VuEV103807
         K23V03B |C2023 11 07.23308 04 24 48.16 +07 26 33.1          20.5 VuEV103807
         K23V03B KC2023 11 07.27081504 24 37.541+07 32 18.35         20.10GVEV103I52
         K23V03B KC2023 11 07.27632204 24 35.334+07 33 29.66         21.18GVEV103I52
         K23V03B KB2023 11 07.27634 04 24 33.42 +07 33 18.1          20.3 GVEV103734
         K23V03B KC2023 11 07.27742204 24 34.949+07 33 42.44         19.65GVEV103I52
         K23V03B KC2023 11 07.27853504 24 34.420+07 33 56.92         20.54GVEV103I52
         K23V03B KB2023 11 07.28191 04 24 31.20 +07 34 28.0          19.9 GVEV103734
         K23V03B KB2023 11 07.28735 04 24 29.00 +07 35 37.5          20.9 GVEV103734
         K23V03B KC2023 11 07.29089004 24 29.441+07 36 33.44         20.41GVEV103I52
         K23V03B KC2023 11 07.29409904 24 28.156+07 37 14.05         20.49GVEV103I52
         K23V03B KC2023 11 07.29730504 24 26.867+07 37 54.48         20.70GVEV103I52
         K23V03B KC2023 11 07.29914804 24 26.107+07 38 17.95         20.26GVEV103I52
         K23V03B hC2023 11 08.03451504 20 11.79 +10 02 08.2          20.5 GVEV103L01
         K23V03B KC2023 11 08.03674104 20 10.96 +10 02 33.1          20.6 GVEV103L01
    
    Observer details:
    474 Mount John Observatory, Lake Tekapo.  Observers A. C. Gilmore, P. M.
        Kilmartin.  Measurer P. M. Kilmartin.  1.0-m f/7.7 reflector + CCD.
    734 Farpoint Observatory, Eskridge.  Observer .
    807 Cerro Tololo Observatory, La Serena.  Observers T. Linder, R. Holmes, L.
        Horn.  0.61-m f/6.5 Dall-Kirkham Astrograph + CCD.
    G96 Mt. Lemmon Survey.  Observer J. B. Fazekas.  Measurers E. C. Beshore, D.
        Fay, J. B. Fazekas, D. C. Fuls, A. R. Gibbs, A. D. Grauer, H. Groeller, J.
        K. Hogan, R. A. Kowalski, S. M. Larson, G. J. Leonard, D. Rankin, R. L.
        Seaman, F. C. Shelly, K. W. Wierzchos.  1.5-m reflector + 10K CCD.
    I52 Steward Observatory, Mt. Lemmon Station.  Observers R. A. Kowalski, H.
        Groeller.  Measurers E. C. Beshore, D. Fay, J. B. Fazekas, D. C. Fuls, A.
        R. Gibbs, A. D. Grauer, H. Groeller, J. K. Hogan, R. A. Kowalski, S. M.
        Larson, G. J. Leonard, D. Rankin, R. L. Seaman, F. C. Shelly, K. W.
        Wierzchos.  1.0-m prime focus + CCD.
    L01 Visnjan Observatory, Tican.  Observer K. Korlevic.  1.0-m f/2.9 reflector
        + CCD.
    
    Orbital elements:
    2023 VB3                                                 Earth MOID = 0.0367 AU
    Epoch 2023 Sept. 13.0 TT = JDT 2460200.5                MPC                     
    M 356.37197              (2000.0)            P               Q                  
    n   0.32086019     Peri.  294.58613     +0.96265499     +0.24386481             
    a   2.1131265      Node    51.51731     -0.16012952     +0.86307409             
    e   0.5924779      Incl.    8.63890     -0.21829777     +0.44230427             
    P   3.07           H   25.24          G   0.15           U   7                  
    Residuals in seconds of arc
    231106 G96  0.1-  0.0     231106 474  0.1-  0.1-    231107 734  0.2+  0.6-
    231106 G96  0.2-  0.1+    231106 474  0.3-  0.4+    231107 734  0.1+  0.1+
    231106 G96  0.4+  0.0     231107 807  0.3-  0.0     231107 I52  0.1-  0.2-
    231106 G96  0.1+  0.6+    231107 807  0.1-  0.0     231107 I52  0.1+  0.2-
    231106 I52  0.4+  0.3-    231107 807  0.2-  0.0     231107 I52  0.1+  0.4-
    231106 I52  0.0   0.4+    231107 I52  0.2+  0.5-    231107 I52  0.1-  0.2-
    231106 I52  0.0   0.3-    231107 I52  0.3+  0.8+    231108 L01  0.7+  0.1-
    231106 I52  0.0   0.4-    231107 734  0.3-  0.1+    231108 L01  0.1+  0.4+
    231106 474  0.0   0.2+    231107 I52  1.1+  0.4-
    231106 474  0.2+  0.1-    231107 I52  0.1-  0.1-
    
    Ephemeris:
    2023 VB3                 a,e,i = 2.11, 0.59, 9                   q = 0.8611
    Date    TT    R. A. (2000) Decl.     Delta      r    Elong.  Phase     V
    2023 10 09    14 39 43.8 -47 24 35   0.1805  0.8861    47.1   124.4    26.5
    ...
    2023 10 24    12 40 22.6 -64 37 33   0.06853 0.9568    54.6   122.1    24.3
    ...
    2023 11 01    05 42 09.4 -34 18 33   0.03974 1.0084   112.2    65.7    20.6
    ...
    2023 11 07    04 26 14.4 +06 34 25   0.06688 1.0516   153.7    24.7    20.6
    2023 11 08    04 20 23.9 +09 56 48   0.07353 1.0591   157.1    21.3    20.7
    2023 11 09    04 15 23.5 +12 44 58   0.08047 1.0667   160.0    18.5    20.9
    ...
    2023 11 15    03 55 46.3 +22 36 14   0.1259  1.1137   170.2     8.7    21.6
    ...
    2023 11 23    03 42 51.2 +27 52 38   0.1932  1.1793   172.0     6.7    22.5
    ...
    2023 12 08    03 34 47.2 +31 02 30   0.3376  1.3076   160.0    14.9    24.3
    
    A. U. Tomatic                (C) Copyright 2023 MPC           M.P.E.C. 2023-V103
    


    Read MPEC 2023-V102 Read MPEC 2023-V104


    MPEC number:

    Enter an MPEC number in one of the following forms:

    • 1997-B01 (the full form)
    • J97B01 (the packed version of the full form)
    • B01 (the abbreviated form)